Location: Unspecified
(0.0000°N, 0.0000°E)
Time: 08:58:02
(UTC+00:00)

Tiangong 2 - Pass Details

Date: 08 January 2018
Orbit: 384 x 390 km, 42.8° (Epoch: 16 January)

Event Time Altitude Azimuth Distance (km) Brightness Sun altitude
Rises 18:37:23 0° 323° (NW) 2,247 5.2 -7.1°
Reaches altitude 10° 18:39:29 10° 328° (NNW) 1,395 4.0 -7.6°
Maximum altitude 18:42:33 50° 45° (NE) 492 1.2 -8.3°
Drops below altitude 10° 18:45:37 10° 122° (ESE) 1,398 3.6 -9.0°
Sets 18:47:43 0° 128° (SE) 2,252 4.7 -9.5°
